Location: Unspecified
(48.8656°N, 0.0000°E)
Time: 19:58:06
(UTC+00:00)

Transit 2A Rocket - Pass Details

Date: 22 June 2019
Orbit: 590 x 913 km, 66.7° (Epoch: 22 August)

Event Time Altitude Azimuth Distance (km) Brightness Sun altitude
Rises 19:09:27 0° 320° (NW) 3,315 9.7 7.2°
Reaches altitude 10° 19:12:03 10° 315° (NW) 2,327 9.3 6.8°
Maximum altitude 19:17:04 45° 244° (WSW) 982 6.1 6.1°
Drops below altitude 10° 19:21:38 10° 172° (S) 2,110 7.0 5.4°
Sets 19:23:54 0° 166° (SSE) 2,974 7.6 5.1°
